Location: Flachau
(48.6167°N, 15.2833°E)
Time: 02:48:05
(UTC+00:00)

Daily predictions for brighter satellites

Satellite Brightness Start Highest point End
(mag) Time Altitude Azimuth Time Altitude Azimuth Time Altitude Azimuth
Cosmos 2344 4.3 02:21:09 48° E 02:21:09 48° E 02:27:28 10° NE
ATLAS 3B R/B 4.0 02:22:24 34° ENE 02:22:24 34° ENE 02:27:08 10° E
CENTAUR R/B 3.4 02:39:30 63° NE 02:39:30 63° NE 02:47:51 10° ESE
USA 215 4.0 02:41:41 10° E 02:47:03 46° NE 02:47:03 46° NE
SL-16 R/B 4.5 02:53:37 10° SE 02:57:36 20° E 03:01:36 10° NE
Cosmos 1980 Rocket 3.3 03:07:20 40° NE 03:07:20 40° NE 03:10:56 10° NNE
Cosmos 1697 Rocket 4.2 03:13:32 27° NNE 03:13:32 27° NNE 03:16:02 10° NNE
ATLAS 2AS CENTAUR R/B 3.4 03:13:15 43° S 03:15:44 59° ESE 03:23:33 10° NE
COSMOS 2455 3.0 03:27:17 68° NE 03:27:17 68° NE 03:32:29 10° NE
Nadezhda 1 Rocket 4.5 03:31:43 46° N 03:31:43 46° N 03:35:54 10° N
CZ-2C R/B 3.8 03:30:04 10° NNE 03:32:36 31° NNE 03:32:36 31° NNE
Cosmos 1680 Rocket 4.4 03:34:01 31° SSE 03:36:09 48° ESE 03:41:16 10° NNE
ALOS 4.0 03:35:06 10° NNE 03:39:16 31° E 03:43:22 10° SSE
Cosmos 2341 Rocket 3.9 03:36:57 10° N 03:43:15 83° E 03:49:28 10° S
BREEZE-M DEB (TANK) 4.3 03:45:45 54° ESE 03:45:45 54° ESE 03:51:14 10° ESE
Okean O Rocket 4.1 03:51:31 10° NE 03:55:02 22° E 03:58:31 10° SE
Cosmos 2263 Rocket 2.1 03:57:52 68° SW 03:57:52 68° SW 04:03:14 10° SSE
Cosmos 2322 Rocket 3.1 03:52:42 10° S 03:58:08 49° ESE 04:03:35 10° NE
Cosmos 2058 Rocket 4.1 03:54:50 10° SSE 03:59:00 45° E 04:03:10 10° NNE
Cosmos 1703 4.5 04:00:46 36° SSE 04:00:46 36° SSE 04:03:11 10° SSE
STARLINK-58 4.4 04:02:49 45° NE 04:02:49 45° NE 04:05:46 10° ENE
STARLINK-62 4.3 04:04:30 46° NE 04:04:30 46° NE 04:07:30 10° ENE
Cosmos 1726 Rocket 3.6 04:03:22 57° SSE 04:04:13 78° E 04:08:38 10° NNE
Cosmos 1606 Rocket 4.2 04:05:52 45° N 04:05:52 45° N 04:08:57 10° N
Cosmos 2218 Rocket 4.1 04:00:01 10° N 04:06:26 78° E 04:12:45 10° SSE
STARLINK 1044 4.1 04:06:52 52° ESE 04:06:52 52° ESE 04:10:17 10° ENE
Cosmos 1624 Rocket 4.0 04:05:47 34° NNW 04:08:07 78° ENE 04:13:18 10° SSE
Cosmos 2228 3.1 04:08:47 65° N 04:08:47 65° N 04:12:33 10° N
Cosmos 1844 Rocket 3.8 04:04:07 14° NNW 04:08:34 40° NE 04:13:52 10° ESE
Cosmos 1900 4.4 04:08:33 48° NNW 04:09:50 71° NE 04:14:43 10° SE
COSMO-SKYMED 1 2.4 04:07:23 10° SSE 04:11:44 85° WSW 04:11:56 80° NW
ATLAS 3B R/B 2.6 04:09:41 43° WNW 04:11:59 70° SW 04:18:50 10° SSE
STARLINK-75 4.2 04:13:05 44° NNE 04:13:05 44° NNE 04:16:00 10° ENE
STARLINK 1031 3.8 04:13:07 58° SE 04:13:07 58° SE 04:16:40 10° ENE
Timation 1 Rocket 4.4 04:13:22 50° WSW 04:13:33 50° WSW 04:19:19 10° S
STARLINK 1024 3.6 04:16:25 62° SE 04:16:25 62° SE 04:20:06 10° ENE
NOSS 3-2 (C) 4.3 04:15:02 40° W 04:16:25 43° WSW 04:24:10 10° S
Cosmos 1959 Rocket 4.4 04:10:18 10° N 04:16:28 88° E 04:22:39 10° S
STARLINK-41 4.0 04:17:49 48° NNE 04:17:49 48° NNE 04:20:56 10° ENE
EXPRESS MD2 4.0 04:18:19 35° ENE 04:18:19 35° ENE 04:19:49 10° E
ADEOS Rocket 4.0 04:12:17 10° SE 04:17:27 42° ENE 04:22:58 10° N
STARLINK 3.8 04:21:40 51° NNE 04:21:40 51° NNE 04:24:55 10° ENE
STARLINK 1029 3.7 04:22:02 49° E 04:22:02 49° E 04:24:28 10° ENE
STARLINK-34 3.8 04:22:14 54° N 04:22:14 54° N 04:25:57 10° ENE
STARLINK 1032 3.4 04:23:05 67° S 04:23:18 69° SSE 04:27:04 10° ENE
Lacrosse 5 rocket 2.7 04:22:34 30° NNW 04:23:42 34° NNE 04:27:47 10° E
Lacrosse 5 2.2 04:21:19 30° SSW 04:23:48 65° SE 04:28:50 10° ENE
Cosmos 2056 Rocket 3.5 04:20:56 26° NNW 04:24:08 82° WSW 04:29:33 10° SSE
STARLINK 1011 3.4 04:26:25 66° SSW 04:26:46 73° SSE 04:30:33 10° ENE
CENTAUR R/B 3.4 04:26:43 32° WNW 04:30:01 46° WSW 04:38:11 10° S
FENGYUN 3A 3.7 04:24:47 10° NNE 04:30:14 83° ESE 04:35:40 10° SSW
STARLINK 1036 3.4 04:29:47 63° SSW 04:30:16 76° SSE 04:34:03 10° ENE
USA 215 3.2 04:24:05 10° ESE 04:30:38 90° NNE 04:34:24 28° NW
Cosmos 923 Rocket 4.1 04:29:48 42° WSW 04:31:07 51° WNW 04:36:20 10° NNE
NOSS 3-4 (A) 3.3 04:28:29 29° SW 04:31:41 74° NW 04:38:10 10° NE
NOSS 3-4 (C) 3.3 04:28:32 29° SW 04:31:47 74° NW 04:38:16 10° NE
Transit 2A Rocket 4.4 04:31:34 54° W 04:32:15 63° NW 04:36:37 10° NNE
STARLINK-24 3.8 04:32:05 50° NNW 04:32:25 52° NNW 04:36:22 10° ENE
SJ-12 3.7 04:28:25 10° N 04:32:31 80° WNW 04:36:36 10° SSW
FALCON 9 DEB 3.7 04:33:44 44° SSW 04:33:44 44° SSW 04:36:46 10° SE
Cosmos 2366 rocket 3.9 04:27:44 10° NNW 04:34:06 74° W 04:40:25 10° S
Cosmos 2344 4.0 04:31:10 32° W 04:34:18 46° NNW 04:42:46 10° NE
STARLINK-81 3.7 04:34:11 50° NW 04:34:37 53° NNW 04:38:34 10° ENE
STARLINK-54 3.8 04:35:58 47° NW 04:36:28 51° NNW 04:40:25 10° ENE
STARLINK 1047 3.3 04:36:31 55° SW 04:37:16 84° SSE 04:41:04 10° ENE
STARLINK-77 3.8 04:37:22 47° NW 04:37:56 52° NNW 04:41:54 10° ENE
USA 116 3.7 04:33:39 10° S 04:38:03 78° WSW 04:40:37 21° NNW
STARLINK-26 3.9 04:38:11 38° N 04:38:23 38° N 04:41:40 10° ENE
STARLINK 1037 3.3 04:38:35 52° WSW 04:39:26 86° SSE 04:43:14 10° ENE
STARLINK-25 3.8 04:38:56 46° NW 04:39:34 51° NNW 04:43:31 10° ENE
CZ-4B R/B 4.1 04:36:03 10° N 04:38:32 27° NNW 04:38:32 27° NNW
Gbstr 26 Del rocket 4.4 04:35:43 24° WSW 04:40:22 84° SSE 04:48:27 10° ENE
PSLV R/B 3.6 04:36:50 10° N 04:40:32 57° WNW 04:41:31 41° SW
STARLINK-61 4.0 04:40:00 40° NW 04:40:38 44° N 04:44:28 10° ENE
SL-16 R/B 2.1 04:35:25 10° SW 04:41:05 74° WNW 04:46:48 10° NNE
STARLINK-71 3.9 04:40:46 43° NW 04:41:29 49° N 04:45:25 10° ENE
STARLINK-79 3.9 04:42:07 43° NW 04:42:53 50° NNW 04:46:50 10° ENE
Cosmos 2360 Rocket 2.9 04:37:22 10° S 04:42:54 56° ESE 04:48:26 10° NE
STARLINK 1059 3.3 04:42:00 48° WSW 04:42:59 89° S 04:46:48 10° ENE
STARLINK-78 3.9 04:43:44 42° NW 04:44:35 50° N 04:48:32 10° ENE
STARLINK-57 3.9 04:45:26 40° NW 04:46:21 49° N 04:50:17 10° ENE
STARLINK 1057 3.3 04:45:25 44° WSW 04:46:33 87° NNW 04:50:21 10° ENE
Cosmos 158 Rocket 3.7 04:42:24 10° SSW 04:47:16 70° WNW 04:52:16 10° NNE
STARLINK-49 3.9 04:46:55 39° NW 04:47:54 49° N 04:51:50 10° ENE
Cosmos 1300 3.4 04:44:42 10° S 04:48:26 54° E 04:52:11 10° NNE
STARLINK-80 4.0 04:47:33 35° NW 04:48:41 47° N 04:52:22 10° E
STARLINK-27 3.9 04:48:29 38° NW 04:49:33 48° N 04:53:29 10° ENE
Cosmos 1980 Rocket 3.1 04:49:08 26° WNW 04:49:48 27° NW 04:54:34 10° NNE
STARLINK 1052 3.3 04:48:51 40° WSW 04:50:07 84° NNW 04:53:56 10° ENE
STARLINK-42 3.9 04:49:24 38° NW 04:50:10 43° N 04:53:43 10° ENE
BREEZE-M DEB (TANK) 3.6 04:43:48 21° WSW 04:50:44 80° NNW 04:54:57 10° ENE
STARLINK-74 4.0 04:50:04 36° WNW 04:51:12 48° N 04:55:08 10° ENE
H-2A R/B 4.3 04:48:19 10° NNE 04:52:00 38° E 04:55:37 10° SSE
CZ-4B R/B 3.4 04:47:17 10° NNE 04:52:50 74° ESE 04:58:15 10° S
STARLINK-39 4.0 04:51:40 35° WNW 04:52:53 48° N 04:56:48 10° ENE
STARLINK 1068 3.3 04:52:17 37° WSW 04:53:42 80° NNW 04:57:30 10° ENE
Helios 1A Rocket 3.5 04:50:19 10° NNE 04:54:26 62° ESE 04:58:32 10° S
STARLINK 4.0 04:53:16 34° WNW 04:54:33 47° N 04:58:28 10° ENE
Cosmos 1867 4.4 04:50:00 13° NNW 04:54:41 47° NE 04:59:56 10° ESE
Cosmos 1697 Rocket 4.2 04:55:16 17° NW 04:55:30 17° NW 04:59:06 10° N
Cosmos 1844 4.0 04:50:18 10° NNW 04:55:53 68° ENE 05:01:25 10° SE
STARLINK-69 4.0 04:55:04 32° WNW 04:56:25 46° N 05:00:20 10° ENE
STARLINK-21 4.0 04:56:28 32° WNW 04:57:54 47° N 05:01:49 10° ENE
STARLINK-29 4.0 04:59:02 30° WSW 04:59:47 34° SW 05:03:01 10° SSE
STARLINK-45 4.1 04:58:18 30° WNW 04:59:49 45° N 05:03:43 10° ENE
SKYMED 2 4.4 04:56:13 10° SSW 04:59:59 28° W 05:00:32 28° W
STARLINK 1060 3.3 04:59:10 31° WSW 05:00:52 74° NNW 05:04:40 10° ENE
STARLINK-70 4.0 04:59:47 29° WNW 05:01:22 46° N 05:05:16 10° ENE
STARLINK-52 4.0 05:01:19 30° WSW 05:02:13 36° SW 05:05:28 10° SSE
STARLINK-76 4.0 05:01:15 29° WNW 05:02:53 46° N 05:06:48 10° ENE
STARLINK 1030 3.3 05:02:37 28° W 05:04:27 72° NNW 05:08:16 10° ENE
STARLINK 4.1 05:02:50 28° WNW 05:04:33 45° N 05:08:27 10° ENE
Cosmos 1812 Rocket 4.0 05:01:16 10° S 05:05:36 66° E 05:10:01 10° NNE
Cosmos 2237 4.4 05:00:15 10° SSW 05:05:57 79° ESE 05:11:41 10° NNE
STARLINK-32 4.1 05:04:26 27° WNW 05:06:13 45° N 05:10:07 10° ENE
Cosmos 1452 Rocket 3.5 05:00:59 10° NNW 05:06:17 87° ENE 05:11:32 10° SSE
ATLAS 2AS CENTAUR R/B 3.3 05:00:45 16° WSW 05:07:03 50° NW 05:14:43 10° NE
Cosmos 1908 4.0 05:03:38 10° SW 05:07:08 31° WNW 05:10:39 10° N
STARLINK-40 4.1 05:06:01 26° WNW 05:07:53 45° N 05:11:46 10° ENE
STARLINK 1020 3.4 05:06:06 26° W 05:08:06 69° NNW 05:11:54 10° ENE
STARLINK 1028 3.0 05:07:22 36° WNW 05:08:10 50° NNW 05:11:03 10° ENE
STARLINK 1021 3.0 05:07:35 36° WNW 05:08:24 50° NNW 05:11:17 10° ENE
STARLINK-64 4.0 05:06:51 26° WNW 05:08:28 42° N 05:12:04 10° ENE
STARLINK 1019 3.0 05:07:50 36° WNW 05:08:38 50° NNW 05:11:29 10° ENE
STARLINK 1012 3.0 05:08:00 36° WNW 05:08:50 50° NNW 05:11:42 10° ENE
STARLINK 1010 3.0 05:08:14 35° WNW 05:09:05 50° NNW 05:11:57 10° ENE
STARLINK 1026 3.0 05:08:27 35° WNW 05:09:18 50° NNW 05:12:11 10° ENE
STARLINK-44 4.1 05:07:35 25° WNW 05:09:32 45° N 05:13:25 10° ENE
STARLINK 1013 3.0 05:08:40 35° WNW 05:09:32 50° NNW 05:12:24 10° ENE
STARLINK 1009 3.0 05:08:53 34° WNW 05:09:46 49° NNW 05:12:38 10° ENE
STARLINK 1015 3.0 05:09:05 34° WNW 05:09:58 49° NNW 05:12:50 10° ENE
STARLINK 1016 3.0 05:09:19 34° WNW 05:10:12 49° NNW 05:13:04 10° ENE
STARLINK 1008 3.0 05:09:31 34° WNW 05:10:25 49° NNW 05:13:18 10° ENE
STARLINK 1025 3.0 05:09:57 33° WNW 05:10:52 49° NNW 05:13:44 10° ENE
STARLINK 1017 3.0 05:10:09 33° WNW 05:11:05 49° NNW 05:13:57 10° ENE
STARLINK 1023 3.0 05:10:21 33° WNW 05:11:18 49° NNW 05:14:10 10° ENE
STARLINK-37 4.1 05:09:19 24° WNW 05:11:21 44° N 05:15:14 10° ENE
STARLINK 1058 4.5 05:07:24 10° SW 05:11:24 49° SE 05:15:25 10° ENE
STARLINK 1007 3.0 05:10:36 33° WNW 05:11:32 48° NNW 05:14:25 10° ENE
STARLINK 1034 3.4 05:09:34 24° W 05:11:44 67° NNW 05:15:32 10° ENE
STARLINK 1048 3.0 05:10:49 32° WNW 05:11:46 48° NNW 05:14:39 10° ENE
STARLINK 1049 3.0 05:11:02 32° WNW 05:12:00 48° NNW 05:14:52 10° ENE
STARLINK 1051 3.0 05:11:15 32° WNW 05:12:14 48° NNW 05:15:05 10° ENE
CZ-2C R/B 4.1 05:09:44 10° NNW 05:12:00 15° NW 05:12:00 15° NW
STARLINK-36 4.1 05:10:47 24° WNW 05:12:52 44° N 05:16:45 10° ENE
COSMOS 2455 3.9 05:10:28 20° WNW 05:13:08 27° NW 05:18:11 10° NNE
STARLINK-68 4.1 05:12:34 23° WNW 05:14:45 44° N 05:18:38 10° ENE
In-Cosmos 22 Rocket 4.2 05:10:08 10° N 05:15:31 78° ENE 05:20:49 10° SSE
COSMOS 2428 4.5 05:10:53 10° S 05:16:01 36° ESE 05:21:11 10° NE
STARLINK-63 4.1 05:14:05 22° WNW 05:16:19 44° N 05:20:12 10° ENE
STARLINK 1043 4.4 05:12:21 10° SW 05:16:22 52° SE 05:20:25 10° ENE
ALOS 2.8 05:12:27 10° N 05:16:42 35° WNW 05:20:57 10° SW
STARLINK-35 4.1 05:15:34 21° WNW 05:17:52 44° N 05:21:45 10° ENE
METEOR-M 4.5 05:13:10 10° N 05:18:11 42° WNW 05:23:11 10° SW
Cosmos 1680 Rocket 4.3 05:14:27 13° WSW 05:18:30 30° NW 05:23:10 10° N
STARLINK-33 4.0 05:16:59 21° WNW 05:18:51 39° N 05:22:13 10° ENE
STARLINK 1033 3.5 05:16:36 20° W 05:19:03 62° NNW 05:22:50 10° ENE
STARLINK-51 4.1 05:17:08 21° WNW 05:19:31 44° N 05:23:24 10° ENE
STARLINK-66 4.0 05:18:34 21° WNW 05:20:31 39° N 05:23:53 10° ENE
PAYLOAD B 4.4 05:15:42 10° N 05:21:10 53° WNW 05:26:35 10° SW
STARLINK-30 4.1 05:18:44 20° WNW 05:21:11 44° N 05:25:04 10° ENE
STARLINK 1065 4.3 05:17:16 10° SW 05:21:20 56° SSE 05:25:24 10° ENE
STARLINK-55 4.0 05:20:12 20° WNW 05:22:13 39° N 05:25:36 10° ENE
Cosmos 1892 3.3 05:18:48 10° N 05:22:36 60° ENE 05:26:21 10° SSE
STARLINK-72 4.1 05:20:21 19° WNW 05:22:52 44° N 05:26:45 10° ENE
RESURS DK-1 2.6 05:18:53 10° SW 05:22:54 48° NW 05:26:57 10° NNE
Cosmos 371 Rocket 3.9 05:18:10 10° NNW 05:23:00 59° ENE 05:27:46 10° SE
STARLINK-48 3.9 05:20:58 18° WNW 05:23:37 51° NNE 05:27:25 10° E
STARLINK-28 4.0 05:21:55 19° WNW 05:24:02 39° N 05:27:24 10° ENE
STARLINK-50 4.1 05:21:56 19° WNW 05:24:32 44° N 05:28:24 10° ENE
STARLINK 1035 3.4 05:22:14 19° W 05:24:35 55° NNW 05:28:07 10° ENE
STARLINK 1063 4.1 05:22:12 10° SW 05:26:17 60° SSE 05:30:23 10° ENE
STARLINK-59 4.2 05:23:37 18° WNW 05:26:18 43° N 05:30:11 10° ENE
STARLINK-56 4.1 05:25:05 17° WNW 05:27:50 43° N 05:31:42 10° ENE
STARLINK 1027 3.5 05:26:24 17° W 05:28:55 52° NNW 05:32:26 10° ENE
NOAA 6 4.2 05:24:07 10° N 05:29:10 52° WNW 05:34:11 10° SW
Starlink (trailer) 4.2 05:26:40 17° WNW 05:29:29 43° N 05:33:22 10° ENE
STARLINK-43 3.3 05:26:45 17° WNW 05:29:30 87° SSW 05:33:13 10° ESE
STARLINK-38 4.2 05:28:17 16° WNW 05:31:10 43° N 05:35:03 10° ENE
STARLINK 1064 4.0 05:27:09 10° SW 05:31:15 64° SSE 05:35:22 10° ENE
Okean O Rocket 1.9 05:27:21 10° N 05:31:35 44° WNW 05:35:47 10° SW
Cosmos 1420 Rocket 4.3 05:26:40 10° NNW 05:31:43 46° WSW 05:36:46 10° S
STARLINK-65 4.2 05:29:52 16° WNW 05:32:50 43° N 05:36:42 10° ENE
Cosmos 2278 Rocket 3.3 05:27:57 10° NNW 05:33:22 44° NE 05:38:45 10° SE
STARLINK 1014 3.4 05:32:06 17° WNW 05:34:09 41° NNW 05:37:06 10° ENE
STARLINK-53 4.2 05:31:33 15° WNW 05:34:35 43° N 05:38:28 10° ENE
Okean 3 Rocket 4.2 05:30:34 10° N 05:35:05 61° ENE 05:39:35 10° SSE
STARLINK 1041 3.9 05:32:07 10° SW 05:36:14 69° SSE 05:40:22 10° ENE
AQUARIUS 4.2 05:32:06 10° NNE 05:36:38 86° ESE 05:41:08 10° SSW
Cosmos 2058 Rocket 4.3 05:33:55 10° WSW 05:37:13 21° WNW 05:40:33 10° NNW
STARLINK 1040 3.4 05:36:04 16° WNW 05:37:59 36° N 05:40:40 10° ENE
Cosmos 1825 3.9 05:35:06 10° N 05:38:36 35° ENE 05:42:04 10° SE
Cosmos 1076 Rocket 3.7 05:35:37 10° NNW 05:39:53 51° W 05:44:06 10° S
CZ-3 R/B 4.3 05:32:00 10° WSW 05:39:59 15° SW 05:44:37 10° SSW
Cosmos 2263 Rocket 3.9 05:39:38 11° W 05:40:27 11° W 05:41:59 10° WSW
Okean-O 3.7 05:36:41 10° NNE 05:41:02 50° E 05:45:20 10° S
STARLINK-58 4.1 05:37:49 13° WNW 05:41:05 43° N 05:44:54 10° ENE
Cosmos 1821 Rocket 4.0 05:35:06 10° NNW 05:41:07 56° W 05:47:02 10° SSW
STARLINK 1038 3.9 05:37:03 10° SW 05:41:11 73° SSE 05:45:20 10° ENE
Cosmos 2322 Rocket 2.8 05:37:13 10° WSW 05:42:22 34° NW 05:47:35 10° NNE
STARLINK-62 4.2 05:39:29 13° WNW 05:42:50 43° N 05:46:39 10° ENE
Meteor 2-1 Rocket 4.2 05:39:04 10° SSW 05:44:42 86° WNW 05:50:16 10° N
STARLINK 1044 3.7 05:41:25 11° W 05:44:59 50° NNW 05:48:44 10° ENE
STARLINK 1046 3.8 05:42:02 10° WSW 05:46:10 78° SSE 05:50:20 10° ENE
Nadezhda 3 Rocket 4.0 05:41:12 10° SSW 05:47:15 58° WNW 05:53:24 10° N
Cosmos 1408 3.1 05:44:30 10° N 05:48:12 63° ENE 05:51:52 10° SSE
Cosmos 1437 4.0 05:46:50 10° NW 05:49:08 20° W 05:51:26 10° SW
Cosmos 1331 Rocket 4.3 05:44:28 10° NNW 05:49:49 72° ENE 05:55:05 10° SSE
IRS-1C Rocket 4.1 05:45:01 10° NNE 05:50:20 84° WNW 05:55:37 10° SSW
STARLINK-75 4.1 05:47:21 11° WNW 05:50:49 42° N 05:54:26 10° ENE
STARLINK 1039 3.7 05:46:59 10° WSW 05:51:08 82° SSE 05:55:17 10° ENE
STARLINK 1031 3.8 05:47:31 10° W 05:51:11 48° NNW 05:54:51 10° ENE
NOAA 12 4.3 05:47:07 10° NNE 05:52:27 81° ESE 05:57:46 10° SSW
Cosmos 1844 Rocket 3.2 05:47:15 10° NW 05:52:28 40° WSW 05:57:40 10° S
Cosmos 1605 Rocket 4.3 05:46:03 10° N 05:52:29 78° E 05:58:48 10° SSE
BREEZE-M DEB (TANK) 4.2 05:48:10 10° W 05:52:42 86° N 06:11:01 10° E
STARLINK 1024 3.8 05:51:00 10° W 05:54:39 47° NNW 05:58:19 10° ENE
STARLINK-41 4.1 05:52:07 10° WNW 05:55:42 42° N 05:59:18 10° ENE
STARLINK 1045 3.7 05:51:57 10° WSW 05:56:07 87° SSE 06:00:16 10° ENE
Cosmos 2151 3.0 05:52:10 10° N 05:56:29 85° W 06:00:47 10° S
STARLINK 1029 3.6 05:54:25 10° W 05:57:24 38° N 06:00:23 10° ENE
STARLINK 4.0 05:56:06 10° WNW 05:59:40 42° N 06:03:15 10° ENE
YAOGAN 1 4.4 05:56:55 10° NNE 06:00:56 36° E 06:04:56 10° SSE
STARLINK 1050 3.6 05:57:05 10° WSW 06:01:13 87° NNW 06:05:23 10° ENE
Cosmos 1340 Rocket 3.3 05:57:39 10° SW 06:01:18 37° WNW 06:04:58 10° N
STARLINK-34 4.1 05:57:30 10° WNW 06:01:20 44° N 06:05:08 10° E
ATLAS 3B R/B 4.2 05:57:56 10° WNW 06:01:32 15° WSW 06:05:13 10° SW
STARLINK 1032 3.8 05:57:59 10° W 06:01:38 46° N 06:05:17 10° ENE
ADEOS Rocket 3.5 05:58:13 10° SSW 06:03:10 33° W 06:08:24 10° NNW
Cosmos 1174 3.4 05:59:29 10° SW 06:03:17 74° NW 06:06:32 10° NNE
Lacrosse 5 rocket 1.5 05:58:48 10° NW 06:03:22 88° SSW 06:07:41 10° SE
Cosmos 2333 Rocket 2.4 05:58:16 10° SSW 06:04:02 85° ESE 06:09:50 10° NNE
STARLINK 1011 3.9 06:01:29 10° W 06:05:08 45° N 06:08:47 10° ENE
STARLINK 1055 3.6 06:02:00 10° WSW 06:06:09 83° NNW 06:10:19 10° ENE
Lacrosse 5 2.4 06:02:09 10° W 06:07:01 43° NNW 06:11:53 10° NE
